Weather History for Hamilton, OH

Change the Weather History Date:

Monday, August 12, 2013

  Actual Average (KCVG) Record (KCVG)
Temperature  
Mean Temperature 73 °F 75 °F  
Max Temperature 86 °F 85 °F 101 °F (1881)
Min Temperature 62 °F 65 °F 52 °F (1954)
Degree Days  
Heating Degree Days 0 0  
Month to date heating degree days 0  
Since 1 June heating degree days 15  
Since 1 July heating degree days 0  
Cooling Degree Days 8 10  
Month to date cooling degree days 129  
Year to date cooling degree days 788  
Since 1 June cooling degree days 694  
Growing Degree Days 23 (Base 50)    
Moisture  
Dew Point 67 °F    
Average Humidity 83    
Maximum Humidity 100    
Minimum Humidity 53    
Precipitation  
Precipitation 0.04 in 0.10 in 2.05 in (1993)
Month to date precipitation 1.35  
Year to date precipitation 27.73  
Snow  
Snow 0.00 in 0.00 in 0.00 in ()
Month to date snowfall 0.0  
Since 1 June snowfall 0.0  
Since 1 July snowfall 0.0  
Snow Depth -    
Sea Level Pressure  
Sea Level Pressure 30.01 in    
Wind  
Wind Speed 1 mph (WSW)    
Max Wind Speed 8 mph    
Max Gust Speed -    
Visibility 6 miles    
Events Rain , Thunderstorm    
T = Trace of Precipitation, MM = Missing Value Source: NWS Daily Summary

Daily Weather History Graph

Daily Weather History Graph

Search for Another Location

Airport:

Trip Planner

Search our weather history database for the weather conditions in past years. The results will help you decide how hot, cold, wet, or windy it might be!

Date:

Astronomy

Aug. 12, 2013 Rise Set
Actual Time 6:48 AM EDT 8:37 PM EDT
Civil Twilight 6:19 AM EDT 9:06 PM EDT
Nautical Twilight 5:44 AM EDT 9:41 PM EDT
Astronomical Twilight 5:06 AM EDT 10:18 PM EDT
Moon 12:35 PM EDT (8/12) 11:31 PM EDT (8/12)
Length of Visible Light 14h 46m
Length of Day
13h 48m
Waxing Crescent, 31% of the Moon is Illuminated
Aug 12
Waxing Crescent
Aug 14
First Quarter
Aug 20
Full
Aug 28
Last Quarter
Sep 5
New

Hourly Weather History & Observations

Time (EDT) Temp. Heat Index Dew Point Humidity Pressure Visibility Wind Dir Wind Speed Gust Speed Precip Events Conditions
12:53 AM 66.0 °F - 64.0 °F 93% 30.09 in 8.0 mi Calm Calm - N/A   Clear
1:53 AM 66.0 °F - 64.0 °F 93% 30.09 in 8.0 mi Calm Calm - N/A   Clear
2:53 AM 66.0 °F - 64.0 °F 93% 30.09 in 7.0 mi NW 3.5 mph - N/A   Clear
3:53 AM 64.0 °F - 63.0 °F 96% 30.07 in 5.0 mi Calm Calm - N/A   Clear
4:53 AM 64.9 °F - 64.0 °F 97% 30.07 in 6.0 mi Calm Calm - N/A   Clear
5:53 AM 64.9 °F - 63.0 °F 93% 30.07 in 4.0 mi Calm Calm - N/A   Clear
6:53 AM 64.0 °F - 62.1 °F 93% 30.07 in 4.0 mi Calm Calm - N/A   Clear
7:05 AM 62.6 °F - 62.6 °F 100% 30.08 in 3.0 mi Calm Calm - N/A   Partly Cloudy
7:12 AM 62.6 °F - 62.6 °F 100% 30.07 in 1.8 mi Calm Calm - N/A   Clear
7:19 AM 62.6 °F - 62.6 °F 100% 30.08 in 1.0 mi Calm Calm - N/A   Clear
7:25 AM 62.6 °F - 62.6 °F 100% 30.08 in 2.0 mi Calm Calm - N/A   Clear
7:34 AM 64.4 °F - 62.6 °F 94% 30.07 in 4.0 mi Calm Calm - N/A   Clear
7:48 AM 66.2 °F - 64.4 °F 94% 30.07 in 1.5 mi Calm Calm - N/A   Clear
7:53 AM 66.0 °F - 64.9 °F 96% 30.06 in 1.2 mi Calm Calm - N/A   Clear
7:58 AM 66.2 °F - 64.4 °F 94% 30.07 in 2.5 mi Calm Calm - N/A   Clear
8:05 AM 68.0 °F - 66.2 °F 94% 30.08 in 4.0 mi Calm Calm - N/A   Clear
8:53 AM 73.0 °F - 68.0 °F 84% 30.06 in 7.0 mi Calm Calm - N/A   Clear
9:53 AM 75.0 °F - 68.0 °F 79% 30.06 in 9.0 mi Calm Calm - N/A   Clear
10:53 AM 81.0 °F 83.8 °F 68.0 °F 65% 30.05 in 10.0 mi Variable 4.6 mph - N/A   Clear
11:53 AM 82.0 °F 84.5 °F 66.9 °F 60% 30.04 in 10.0 mi Variable 6.9 mph - N/A   Scattered Clouds
12:53 PM 82.0 °F 84.1 °F 66.0 °F 58% 30.03 in 10.0 mi Variable 3.5 mph - N/A   Clear
1:53 PM 82.9 °F 85.0 °F 66.0 °F 56% 30.01 in 10.0 mi Variable 6.9 mph - N/A   Scattered Clouds
2:53 PM 84.9 °F 87.1 °F 66.0 °F 53% 29.98 in 10.0 mi WSW 6.9 mph - N/A   Clear
3:53 PM 84.9 °F 87.6 °F 66.9 °F 55% 29.95 in 10.0 mi SW 8.1 mph - N/A   Scattered Clouds
4:53 PM 82.9 °F 85.8 °F 68.0 °F 60% 29.94 in 10.0 mi SW 4.6 mph - N/A   Mostly Cloudy
5:25 PM 82.4 °F 86.3 °F 69.8 °F 66% 29.94 in 10.0 mi SW 5.8 mph - N/A Thunderstorm Mostly Cloudy
5:40 PM 80.6 °F 83.9 °F 69.8 °F 70% 29.93 in 9.0 mi SW 4.6 mph - N/A   Mostly Cloudy
5:53 PM 82.0 °F 85.5 °F 69.1 °F 65% 29.92 in 9.0 mi SW 4.6 mph - N/A   Mostly Cloudy
6:53 PM 80.1 °F 83.2 °F 70.0 °F 71% 29.91 in 9.0 mi WSW 3.5 mph - N/A   Clear
7:53 PM 80.1 °F 83.6 °F 71.1 °F 74% 29.90 in 7.0 mi WSW 3.5 mph - N/A   Mostly Cloudy
8:53 PM 78.1 °F - 72.0 °F 81% 29.90 in 8.0 mi Calm Calm - N/A   Mostly Cloudy
9:53 PM 75.9 °F - 73.0 °F 91% 29.89 in 3.0 mi Calm Calm - 0.03 in Rain Rain
10:53 PM 75.0 °F - 73.0 °F 94% 29.90 in 4.0 mi Calm Calm - 0.01 in   Mostly Cloudy
11:36 PM 75.2 °F - 73.4 °F 94% 29.91 in 4.0 mi Calm Calm - N/A   Mostly Cloudy
11:53 PM 75.0 °F - 73.0 °F 94% 29.90 in 4.0 mi Calm Calm - N/A   Scattered Clouds